Regional Weather Roundup
Issued by NWS Albany, NY

Home | Current Version | Previous Version | Graphics & Text | Print | Product List | Glossary Off
Versions: 1 2 3 4 5 6 7 8 9 10 11 12 13 14 15 16 17 18 19 20 21 22 23 24 25 26 27

000
ASUS41 KALY 232110
RWRALY

NEW YORK STATE HOURLY WEATHER ROUNDUP
NATIONAL WEATHER SERVICE ALBANY NY
500 PM EDT WED APR 23 2014

NOTE: "FAIR" INDICATES FEW OR NO CLOUDS BELOW 12,000 FEET WITH NO
SIGNIFICANT WEATHER AND/OR NO OBSTRUCTIONS TO VISIBILITY.

NYZ032-033-038>043-046>054-057>066-NYZ062>081-232200-
EAST


CITY           SKY/WX    TMP DP  RH WIND       PRES   REMARKS
ALBANY         CLOUDY    49  33  54 NW23G32   29.68R
GLENS FALLS    CLOUDY    51  32  48 NW14G23   29.68R
POUGHKEEPSIE   MOSUNNY   54  34  46 N16G29    29.65R
NEWBURGH       PTSUNNY   54  36  50 NW18G30   30.67R
MONTGOMERY     CLOUDY    52  34  50 N22G36    29.68R
WHITE PLAINS   PTSUNNY   57  33  40 NW26G33   29.61R
ISLIP          PTSUNNY   60  35  39 NW23G32   29.55S
NEW YORK CITY  PTSUNNY   57  33  40 NW28G39   29.63R
CENTRAL PARK   PTSUNNY   59  33  37 NW12G29   29.66R
$$

NYZ005>009-017-018-044>046-055-056-232200-
CENTRAL


CITY           SKY/WX    TMP DP  RH WIND       PRES   REMARKS
FULTON         CLOUDY    40  31  70 W17       29.86R WCI  31
SYRACUSE       CLOUDY    42  30  62 W18G28    29.85R
ROME           CLOUDY    41  31  67 W18G26    29.81R
ELMIRA         CLOUDY    41  28  60 VRB7G22   29.88R
BINGHAMTON     LGT SNOW  36  34  93 NW13G25   29.81R FOG     WCI  27
MONTICELLO     CLOUDY    39  34  81 NW17G31   29.73R WCI  30
$$

NYZ026>034-041>043-232200-
NORTH


CITY           SKY/WX    TMP DP  RH WIND       PRES   REMARKS
WATERTOWN      CLOUDY    48  28  46 NW16      29.82R
FORT DRUM      NOT AVBL
MASSENA        CLOUDY    47  32  56 NW13      29.77R
SARANAC LAKE   CLOUDY    38  31  76 NW10G18   29.69R WCI  31
PLATTSBURGH    CLOUDY    47  32  56 NW12G25   29.68R
$$

NYZ001>004-010>016-019>021-232200-
WEST


CITY           SKY/WX    TMP DP  RH WIND       PRES   REMARKS
NIAGARA FALLS  MOSUNNY   46  25  43 NW17      29.95R
BUFFALO        MOSUNNY   44  33  65 SW12      29.94S
DUNKIRK        SUNNY     45  31  58 W16       29.97R
JAMESTOWN      PTSUNNY   43  28  56 W16G24    29.95R
WELLSVILLE     CLOUDY    39  27  62 N15G22    29.89S WCI  31
ROCHESTER      PTSUNNY   45  32  60 NW16G25   29.91S
PENN YAN       CLOUDY    39  31  72 W16G22    29.89R WCI  30
$$

             KEY
       WCI = WIND CHILL INDEX
       VSB = VISIBILITY
       HX  = HEAT INDEX
$$



USA.gov is the U.S. government's official web portal to all federal, state and local government web resources and services.